Simultaneous Nadir Overpasses (SNOs) Predictions

Prediction of SNOs between LANDSAT-8 and NOAA-19 Satellite Orbit:

Table of predicted SNOs for the next 14.0 days since TLE Epoch: 1/15/2016
Index Date (LANDSAT-8) Time (LANDSAT-8) Lat,Lon (LANDSAT-8) SZA (LANDSAT-8 ) Date (NOAA-19) Time (NOAA-19) Lat,Lon (NOAA-19) SZA (NOAA-19 ) Distance(km) Time Diff (sec)
1 01/16/2016 13:57:30 -74.11, 153.99 85.01 01/16/2016 13:56:36 -74.12, 153.96 85.00 1.37 54
2 01/16/2016 14:46:57 74.04, -38.54 94.91 01/16/2016 14:47:33 74.02, -38.52 94.89 2.26 36
3 01/18/2016 19:31:13 74.12,-109.43 94.56 01/18/2016 19:30:45 74.12,-109.53 94.56 3.13 28
4 01/18/2016 20:20:43 -74.00, 57.93 85.57 01/18/2016 20:21:45 -73.99, 58.04 85.58 3.42 62
5 01/21/2016 01:04:59 -74.08, -12.96 85.96 01/21/2016 01:04:56 -74.07, -12.91 85.96 1.54 3
6 01/21/2016 01:54:37 73.42, 153.25 93.38 01/21/2016 01:55:42 73.39, 156.04 93.36 88.85 65
7 01/23/2016 05:49:15 -74.15, -83.87 86.38 01/23/2016 05:48:07 -74.16, -83.89 86.37 1.10 68
8 01/23/2016 06:38:42 74.06, 83.58 93.53 01/23/2016 06:39:06 74.08, 83.57 93.55 1.61 24
9 01/25/2016 11:22:58 74.13, 12.65 93.07 01/25/2016 11:22:17 74.14, 12.65 93.09 1.80 41
10 01/25/2016 12:12:27 -74.07,-179.86 87.00 01/25/2016 12:13:16 -74.05,-179.84 87.02 2.26 49
11 01/27/2016 16:56:43 -74.13, 109.21 87.49 01/27/2016 16:56:27 -74.14, 109.16 87.48 2.46 16
